TIME,DELAY(SENSOR),PRES,OXYGEN,RAWTEMP,T(OPTODE),TCPHASE,FLUOR,BETA(BETA700),BETA(BETA412),BETA(BETA440),CDOM,C(CSC),ED(ED412.40),ED(ED444.00),ED(ED489.70),ED(ED554.30),LU(LU411.80),LU(LU443.40),LU(LU489.60),LU(LU554.10),COMP,TILTX,TILTY,CHECK
1358307400,5806,869.0599975585938000,44.1540794372558600,661.2777709960938000,4.5858969688415530,54.3913307189941400,53,101,86,78,80,15049,2147758372,2147420233,2148012370,2147875611,2147640740,2147063899,2148260416,2147196800,2975,4,13,49674
1358310996,5806,951.5100097656250000,52.0181999206543000,670.3391723632812000,4.2869911193847660,53.4003181457519500,52,98,86,78,81,15054,2147756772,2147422610,2148014125,2147875264,2147641965,2147058304,2148257042,2147197458,2876,4,14,24463
1358314596,5807,964.4699707031250000,53.6135406494140600,672.0208740234375000,4.2314171791076660,53.2015686035156250,53,96,95,78,79,15050,2147756032,2147424036,2148009161,2147873837,2147640923,2147058852,2148259931,2147199670,699,4,13,14363
1358318196,5810,1004.3800048828125000,52.5597190856933600,675.1138916015625000,4.1291179656982420,53.3889617919921900,52,97,89,77,82,15056,2147755721,2147421229,2148009426,2147874861,2147642788,2147063003,2148256466,2147199204,263,4,13,59010
1358321796,5809,1009.6500244140625000,52.7919883728027340,672.8618774414062000,4.2036108970642090,53.3292999267578100,53,98,86,79,80,15057,2147757156,2147424621,2148010368,2147875904,2147641965,2147057462,2148258806,2147198747,15,4,13,1887
1358325396,5808,1015.2600097656250000,51.8802680969238300,674.0637207031250000,4.1638660430908200,53.4659385681152340,53,100,87,82,80,15027,2147756562,2147423789,2148009828,2147876681,2147645449,2147056603,2148261412,2147197257,665,4,13,61509
1358328996,5808,1011.1500244140625000,51.9427299499511700,675.2697143554688000,4.1239600181579590,53.4692993164062500,53,100,85,81,81,15051,2147758985,2147423360,2148010432,2147873490,2147639643,2147060013,2148259008,2147197330,513,4,13,12371
1358332596,5809,1016.8499755859375000,51.8356399536132800,675.5125732421875000,4.1159210205078125,53.4875106811523440,52,99,89,78,81,15052,2147756370,2147423305,2148009965,2147874176,2147642779,2147058587,2148256658,2147193362,3124,4,13,63225
1358336196,5807,1006.4600219726562000,51.8326606750488300,676.7056274414062000,4.0764307975769040,53.5035514831543000,51,100,89,78,81,15053,2147757138,2147422043,2148009243,2147880256,2147641993,2147057718,2148262363,2147195657,350,4,13,41394
1358339796,5807,1014.0399780273438000,51.6844596862793000,676.5175170898438000,4.0826568603515625,53.5202217102050800,52,97,88,80,81,15053,2147757988,2147423451,2148008338,2147872603,2147641728,2147059931,2148263908,2147197641,3195,4,13,10780
1358343396,5808,1019.5800170898438000,51.5630111694335940,675.7573242187500000,4.1078219413757320,53.5301094055175800,52,114,91,79,81,15044,2147759350,2147422464,2148010066,2147878336,2147643008,2147062381,2148260617,2147196827,3504,4,13,38604
1358346996,5808,1023.8800048828125000,51.9576492309570300,675.2902832031250000,4.1232781410217285,53.4707412719726560,53,98,85,78,82,15042,2147758893,2147423195,2148009225,2147874432,2147641179,2147058258,2148261705,2147197513,3300,4,13,59010
1358350596,5809,1015.8699951171875000,51.5358390808105500,676.4204711914062000,4.0858712196350100,53.5437698364257800,53,100,85,78,81,15043,2147755867,2147422802,2148011346,2147875913,2147643894,2147060617,2148255872,2147196772,3246,4,13,26587
1358354196,5809,1017.7399902343750000,51.5072097778320300,676.2412719726562000,4.0918049812316895,53.5407218933105500,52,98,85,80,80,15041,2147759067,2147423552,2148011218,2147873014,2147639277,2147059437,2148265965,2147199186,3591,4,14,46977
1358357796,5809,1024.4100341796875000,51.7209396362304700,675.1060180664062000,4.1293811798095700,53.4983291625976560,52,97,89,79,81,15042,2147759862,2147422500,2148010660,2147877494,2147643264,2147056832,2148260973,2147198025,380,4,13,52076
1358361396,5809,1021.2999877929688000,51.3293609619140600,675.5657958984375000,4.1141619682312010,53.5583915710449200,52,99,87,78,81,15042,2147758500,2147422518,2148010998,2147873270,2147641014,2147061961,2148265170,2147196992,3513,4,13,9417
1358364996,5808,1021.9299926757812000,51.0893211364746100,676.5020141601562000,4.0831718444824220,53.6049995422363300,53,97,86,79,80,15042,2147756763,2147423140,2148013238,2147873664,2147641728,2147060580,2148255341,2147199122,3532,4,14,13655
1358368596,5809,1013.4299926757812000,51.6809082031250000,677.9246215820312000,4.0360598564147950,53.5411109924316400,52,100,89,79,80,15043,2147757092,2147424091,2148013842,2147874176,2147644434,2147055972,2148255597,2147195757,492,4,13,47765
1358372196,5809,1014.6099853515625000,51.4553909301757800,678.5068969726562000,4.0167689323425290,53.5804100036621100,52,98,85,79,81,15045,2147759524,2147421650,2148011428,2147873069,2147644059,2147061595,2148260982,2147198491,48,4,13,35054
1358375796,5801,1009.3800048828125000,51.8654212951660160,678.6953125000000000,4.0105299949646000,53.5246582031250000,52,98,88,79,80,15043,2147759168,2147423222,2148011510,2147875190,2147643675,2147054912,2148258633,2147194907,572,4,13,43788
1358379396,5806,1016.3499755859375000,53.7705993652343750,678.9799804687500000,4.0010948181152340,53.2728118896484400,52,99,85,80,81,15041,2147756690,2147422528,2148007908,2147877604,2147641810,2147061366,2148256420,2147196205,637,4,13,14986
1358382996,5811,1020.1799926757812000,52.0573997497558600,677.4475708007812000,4.0518569946289060,53.4842987060546900,53,99,87,79,81,15043,2147755538,2147419885,2148009069,2147876224,2147642614,2147062125,2148257526,2147196928,450,4,14,30566
1358386596,5810,1021.5100097656250000,52.0915184020996100,677.7421875000000000,4.0421009063720700,53.4863090515136700,53,99,84,79,80,15042,2147757037,2147422592,2148009444,2147873408,2147642221,2147063981,2148258386,2147197083,482,4,13,15008
1358390196,5808,1024.7500000000000000,51.3891601562500000,677.8826293945312000,4.0374507904052730,53.5809211730957000,52,97,91,79,80,15042,2147755949,2147424777,2148013284,2147873654,2147642806,2147054747,2148259190,2147201709,287,4,13,64323
1358393796,5810,1029.1300048828125000,51.6811599731445300,675.1201171875000000,4.1289119720458980,53.5020408630371100,52,100,85,81,81,15036,2147758153,2147423643,2148012626,2147877211,2147642313,2147059538,2148257536,2147197860,320,4,13,44199
1358397396,5808,1033.9699707031250000,52.5429000854492200,674.3947143554688000,4.1529140472412110,53.3812294006347660,52,97,86,78,80,15039,2147757750,2147422976,2148012443,2147875190,2147643675,2147061888,2148261312,2147198125,3000,4,13,56608
1358400996,5809,1031.9899902343750000,52.6212806701660160,674.4628295898438000,4.1506609916687010,53.3664283752441400,52,98,87,78,80,15039,2147756233,2147423570,2148008694,2147872137,2147643721,2147059904,2148258624,2147191835,533,4,13,25960
1358404596,5809,1028.6300048828125000,51.7800903320312500,675.3817749023438000,4.1202511787414550,53.4968986511230500,52,96,88,79,81,15037,2147758582,2147422902,2148009883,2147874523,2147642075,2147060480,2148260160,2147193993,577,4,13,29795
1358408196,5811,1029.2399902343750000,52.0214614868164060,674.4879150390625000,4.1498317718505860,53.4481086730957000,53,99,88,77,80,15038,2147757769,2147421129,2148009554,2147875382,2147642779,2147064448,2148258477,2147199122,69,4,13,10536
1358411796,5810,1024.1899414062500000,51.5297393798828100,675.2672119140625000,4.1240439414978030,53.5269393920898440,53,101,87,78,80,15034,2147758034,2147423469,2148013165,2147873270,2147643081,2147059712,2148257106,2147197403,3299,4,13,26146
1358415396,5808,1017.2600097656250000,51.2491111755371100,677.1275024414062000,4.0624599456787110,53.5909996032714840,52,98,88,77,82,15037,2147756571,2147423698,2148010020,2147873563,2147639414,2147061220,2148256146,2147197805,289,4,13,32579
1358418996,5811,1015.4799804687500000,51.9729995727539060,679.0482177734375000,3.9988350868225098,53.5153388977050800,53,96,86,79,81,15037,2147756909,2147425152,2148011236,2147875227,2147646875,2147059968,2148259565,2147198619,227,4,13,4261
1358422596,5806,1012.9899902343750000,52.2060317993164060,679.3607788085938000,3.9884760379791260,53.4855384826660160,52,97,85,78,81,15033,2147757952,2147420918,2148012653,2147877037,2147644480,2147055460,2148262025,2147199213,2651,4,13,25309
1358426196,5808,1018.6699829101562000,52.1997299194335940,679.2504272460938000,3.9921319484710693,53.4872093200683600,53,98,86,79,81,15035,2147756809,2147423021,2148012278,2147875520,2147642816,2147061202,2148259465,2147200228,3517,4,13,28275
1358429796,5812,1020.7700195312500000,52.0691986083984400,678.6782226562500000,4.0110931396484375,53.4973793029785160,53,98,87,78,79,15027,2147755492,2147424192,2148012041,2147874441,2147643401,2147056612,2148263488,2147198729,146,4,13,28956
1358433396,5810,1015.9500122070312000,51.7521400451660160,677.9196777343750000,4.0362238883972170,53.5274581909179700,52,99,87,80,80,15024,2147757321,2147424201,2148009289,2147874048,2147642230,2147057883,2148261769,2147200411,538,4,13,49714
1358436996,5807,1033.1800537109375000,52.0912094116210940,677.2044067382812000,4.0599141120910645,53.4786796569824200,52,99,86,79,80,15024,2147757586,2147424384,2148008475,2147877494,2147648146,2147054902,2148259840,2147197595,828,4,13,1449
1358440596,5808,1027.9000244140625000,51.4242591857910160,677.3737182617188000,4.0543060302734375,53.5667114257812500,53,99,87,79,82,15024,2147758198,2147424512,2148007945,2147874395,2147644973,2147059666,2148259794,2147194678,206,4,13,13883
1358444196,5808,1022.9699707031250000,51.5236282348632800,677.9609985351562000,4.0348548889160160,53.5609207153320300,53,100,90,78,80,15026,2147759771,2147425590,2148011090,2147873901,2147642258,2147057865,2148258121,2147195236,453,4,13,53298
1358447796,5807,1034.3100585937500000,51.6638183593750000,677.3618774414062000,4.0546989440917970,53.5392608642578100,52,100,86,79,81,15012,2147757394,2147421458,2148013174,2147873636,2147640539,2147059227,2148262747,2147196882,30,4,13,34696
1358451396,5806,1031.7399902343750000,51.6691093444824200,677.1458740234375000,4.0618519783020020,53.5330505371093750,52,98,86,79,80,15025,2147755373,2147421933,2148013056,2147875099,2147640731,2147063158,2148257883,2147199003,10,4,13,33458
1358452855,5809,1032.7700195312500000,51.7038803100585940,676.6580810546875000,4.0780029296875000,53.5218696594238300,52,98,87,79,80,15042,2147759954,2147421677,2148011894,2147873453,2147641069,2147062564,2148256612,2147196480,41,4,13,48368
